CAPE
189 42 28 0 39 0 20 0 0 0 0 0 0 0 0 5 3 3 1 40 39 34 56 43 57 32 14 3 23 36 13 7 0 9 1 0 0 0 0 0 0 0 0
169 82 51 0 38 6 3 13 0 0 0 0 0 0 1 3 2 1 0 2 38 41 30 50 60 73 119 102 50 15 25 5 0 0 0 0 0 0 0 0 0 0 0
180 112 112 21 31 20 6 7 0 0 0 0 0 0 5 2 0 0 0 4 17 3 15 58 91 96 118 84 71 73 49 0 0 0 0 0 0 0 0 0 0 0 0
234 211 144 114 2 24 1 3 4 0 0 0 0 0 0 0 0 0 0 0 79 30 32 62 79 70 47 126 140 139 127 104 2 0 0 20 107 67 15 17 2 1 0
67 260 200 189 46 28 1 1 6 0 2 0 0 0 0 0 1 0 0 0 59 121 39 54 104 67 42 46 100 150 165 154 152 52 82 51 97 138 103 8 9 6 0
6 227 304 201 181 16 27 1 2 7 0 0 0 0 0 0 0 1 3 2 11 93 99 49 68 112 123 74 109 158 178 168 225 171 159 134 136 113 120 101 67 24 6
20 174 345 214 237 79 55 1 4 8 12 0 0 0 0 0 1 0 0 4 1 13 65 43 42 79 80 126 159 146 164 250 174 183 150 164 86 69 98 74 49 48 45
26 47 305 324 281 169 111 13 2 4 4 8 0 0 0 0 1 6 8 6 7 2 3 22 15 47 61 87 177 170 148 128 161 118 74 160 157 96 98 50 99 67 64
0 35 310 466 309 286 107 32 0 6 5 4 12 0 0 0 0 3 7 9 10 5 2 32 36 19 35 90 130 126 118 104 117 103 175 109 101 201 95 109 134 85 21
10 36 87 529 440 391 227 126 9 0 0 4 5 0 0 0 0 0 0 0 0 0 7 8 56 55 47 83 132 134 82 100 107 105 81 121 88 144 119 81 85 97 60
0 5 84 157 543 485 382 199 82 10 0 0 5 3 2 2 0 0 0 0 0 0 0 0 3 10 44 56 60 53 61 78 74 63 61 125 144 97 115 131 104 80 83
18 17 19 170 290 568 515 416 231 76 15 9 0 2 7 8 0 0 0 1 0 0 0 0 0 0 0 5 14 17 16 26 30 35 44 44 53 71 66 100 112 115 92
0 0 9 157 270 476 560 589 432 273 86 47 52 3 2 5 4 0 0 0 0 25 12 0 0 0 0 0 0 5 4 3 0 0 0 2 27 32 46 72 79 106 76
0 0 0 0 2 328 542 598 699 393 284 80 60 98 53 30 11 29 14 18 50 22 43 36 6 0 0 0 0 0 0 0 0 0 0 3 28 25 21 44 54 59 33
0 0 0 5 2 0 12 255 566 756 417 271 112 66 145 151 169 142 105 87 78 137 93 83 42 32 20 0 0 0 0 0 0 0 0 1 25 36 38 51 24 18 21
0 0 0 0 0 0 0 0 40 682 804 500 386 332 120 148 200 210 200 225 172 145 183 165 114 86 45 46 41 19 13 8 22 70 109 82 19 34 73 74 48 34 39
0 0 0 0 0 0 0 0 0 3 215 791 658 532 420 237 207 214 192 223 233 213 162 132 131 107 86 95 80 63 51 60 73 88 103 65 61 50 53 89 99 76 58
0 0 0 0 0 0 0 0 0 2 0 67 611 774 670 590 438 302 219 222 222 200 171 131 94 75 88 104 132 103 88 72 60 43 82 57 70 59 84 87 44 74 94
0 0 0 0 0 0 0 0 0 0 0 0 2 465 679 631 587 472 376 347 278 222 180 138 112 69 90 95 111 113 98 74 78 48 44 61 90 73 151 117 115 81 107
0 0 0 0 0 0 0 0 0 0 0 0 0 1 127 561 535 553 507 417 335 243 236 180 146 90 80 77 84 97 75 70 42 33 48 106 108 88 77 81 100 125 78
0 0 0 0 0 0 0 0 0 0 0 0 0 2 6 198 533 481 485 388 353 343 251 294 491 469 231 256 193 102 155 107 47 108 45 42 86 62 113 56 52 13 47
0 0 0 0 0 0 0 0 0 0 0 0 0 0 8 24 503 483 446 287 322 293 261 324 303 153 140 261 209 118 92 87 105 46 95 78 16 22 41 59 55 21 0
0 0 0 0 0 0 0 0 0 0 0 0 0 0 0 26 110 414 429 428 286 266 244 164 149 136 107 19 68 119 64 112 105 43 1 1 0 12 28 40 5 0 0
0 0 0 0 0 0 0 0 0 0 0 0 0 2 0 2 53 150 312 451 467 401 382 325 297 206 99 96 122 178 58 1 0 0 0 0 0 0 0 0 0 0 0
0 0 0 0 0 0 0 0 0 0 0 0 0 19 17 10 8 102 253 310 360 450 414 207 176 283 151 60 84 20 0 0 0 0 0 0 0 0 0 0 0 0 0
0 0 0 0 0 0 0 0 0 0 0 0 8 33 28 46 48 31 145 244 199 122 169 116 79 196 85 0 11 9 0 0 0 0 0 0 0 0 0 0 0 0 0
CIN
-30 -109 -148 -0 -259 -0 -176 -0 -0 -0 -0 -0 -0 -0 -0 -0 -0 -0 -0 -2 -2 -6 -4 -15 -31 -62 -19 -63 -61 -26 -38 -38 -0 -7 -12 -0 -0 -0 -0 -0 -0 -0 -0
-30 -84 -204 -0 -192 -201 -3 -0 -0 -0 -0 -0 -0 -0 -0 -0 -0 -0 -0 -1 -12 -3 -61 -46 -58 -56 -37 -31 -29 -63 -52 -58 -0 -0 -0 -0 -0 -0 -0 -0 -0 -0 -0
-20 -82 -176 -230 -232 -277 -11 -116 -0 -0 -0 -0 -0 -0 -0 -0 -0 -0 -0 -8 -38 -46 -30 -65 -61 -86 -56 -30 -29 -51 -43 -0 -0 -0 -0 -0 -0 -0 -0 -0 -0 -0 -0
-15 -52 -153 -236 -60 -290 -14 -0 -0 -0 -0 -0 -0 -0 -0 -0 -0 -0 -0 -0 -21 -29 -27 -25 -47 -88 -84 -25 -18 -25 -22 -23 -77 -0 -0 -64 -42 -19 -9 -9 -3 -0 -0
-11 -35 -117 -184 -274 -272 -113 -0 -0 -0 -0 -0 -0 -0 -0 -0 -0 -0 -0 -0 -18 -14 -33 -32 -33 -88 -97 -21 -11 -23 -25 -19 -17 -20 -56 -60 -65 -31 -18 -7 -7 -7 -0
-20 -17 -65 -148 -197 -277 -315 -18 -0 -0 -0 -0 -0 -0 -0 -0 -0 -0 -0 -0 -3 -18 -49 -60 -41 -14 -35 -46 -17 -17 -22 -28 -15 -13 -10 -35 -36 -33 -30 -18 -8 -3 -0
-26 -14 -33 -100 -152 -231 -285 -2 -152 -58 -0 -0 -0 -0 -0 -0 -0 -0 -0 -0 -0 -5 -52 -56 -42 -26 -24 -16 -25 -21 -21 -19 -35 -23 -29 -37 -31 -46 -28 -26 -26 -19 -24
-27 -14 -19 -74 -122 -196 -255 -320 -12 -0 -0 -0 -0 -0 -0 -0 -0 -0 -0 -0 -0 -0 -3 -35 -71 -67 -11 -15 -20 -35 -45 -39 -26 -42 -23 -22 -29 -35 -29 -27 -14 -7 -14
-5 -25 -9 -48 -96 -159 -237 -323 -0 -0 -0 -0 -0 -0 -0 -0 -0 -0 -1 -0 -0 -0 -1 -13 -39 -52 -24 -6 -11 -27 -34 -28 -39 -43 -41 -34 -28 -32 -30 -17 -9 -7 -8
-12 -37 -24 -31 -60 -111 -181 -231 -281 -0 -0 -0 -0 -0 -0 -0 -0 -0 -0 -0 -0 -0 -0 -21 -33 -36 -18 -10 -5 -18 -36 -38 -30 -30 -34 -29 -30 -21 -19 -20 -14 -12 -10
-0 -21 -9 -25 -46 -81 -134 -150 -209 -334 -49 -0 -0 -0 -0 -0 -0 -0 -0 -0 -0 -0 -0 -0 -1 -27 -9 -6 -4 -15 -26 -28 -20 -22 -25 -10 -10 -24 -14 -9 -8 -23 -23
-4 -7 -24 -20 -15 -48 -80 -157 -131 -207 -310 -330 -0 -0 -1 -301 -0 -0 -2 -0 -0 -0 -0 -0 -0 -0 -0 -27 -18 -13 -23 -44 -35 -23 -15 -10 -6 -4 -8 -6 -10 -6 -18
-0 -0 -15 -14 -28 -25 -43 -47 -136 -126 -201 -254 -305 -73 -1 -1 -0 -0 -0 -0 -0 -259 -285 -0 -0 -0 -0 -0 -0 -19 -17 -15 -0 -0 -0 -37 -12 -7 -9 -9 -18 -0 -16
-0 -0 -0 -0 -3 -16 -34 -48 -59 -102 -98 -186 -245 -287 -341 -397 -442 -364 -164 -294 -253 -286 -233 -223 -119 -0 -0 -1 -1 -0 -0 -0 -0 -0 -0 -22 -34 -36 -26 -7 -13 -0 -3
-0 -0 -0 -228 -167 -0 -49 -29 -34 -67 -102 -91 -146 -284 -271 -260 -237 -263 -286 -269 -230 -185 -189 -175 -218 -196 -195 -0 -0 -0 -0 -3 -0 -0 -0 -22 -50 -49 -12 -27 -10 -8 -1
-0 -0 -0 -0 -0 -0 -0 -0 -59 -23 -52 -65 -114 -120 -206 -228 -234 -229 -223 -190 -221 -207 -148 -166 -177 -172 -219 -251 -223 -188 -140 -86 -17 -7 -1 -3 -45 -36 -17 -4 -2 -5 -0
-0 -0 -0 -0 -0 -0 -0 -0 -0 -72 -60 -22 -89 -130 -114 -170 -236 -255 -216 -226 -226 -203 -218 -193 -168 -193 -195 -206 -194 -170 -36 -39 -34 -21 -13 -13 -10 -4 -0 -1 -0 -0 -10
-0 -0 -0 -0 -0 -0 -0 -0 -0 -174 -0 -24 -16 -54 -98 -115 -161 -189 -245 -272 -263 -241 -233 -233 -94 -207 -51 -48 -45 -70 -69 -62 -68 -54 -52 -34 -26 -11 -1 -0 -0 -0 -0
-0 -0 -0 -0 -0 -0 -0 -0 -0 -0 -0 -0 -4 -18 -43 -85 -92 -102 -191 -243 -211 -232 -249 -227 -203 -69 -36 -63 -81 -82 -72 -73 -95 -99 -84 -41 -11 -7 -0 -0 -0 -0 -0
-0 -0 -0 -0 -0 -0 -0 -0 -0 -0 -0 -0 -0 -160 -66 -28 -85 -102 -117 -149 -138 -148 -141 -198 -214 -216 -208 -218 -208 -177 -135 -128 -118 -78 -42 -19 -4 -0 -0 -0 -0 -0 -0
-0 -0 -0 -0 -0 -0 -0 -0 -0 -0 -0 -0 -0 -94 -175 -82 -44 -91 -88 -80 -94 -136 -171 -164 -126 -113 -130 -97 -85 -103 -67 -60 -76 -26 -18 -0 -5 -1 -6 -3 -3 -40 -3
-0 -0 -0 -0 -0 -0 -0 -0 -0 -0 -0 -0 -0 -0 -202 -153 -27 -46 -67 -99 -92 -109 -117 -104 -80 -100 -76 -24 -23 -39 -40 -21 -1 -11 -0 -0 -0 -0 -0 -0 -0 -0 -0
-0 -0 -0 -0 -0 -0 -0 -0 -0 -0 -0 -0 -0 -0 -15 -156 -99 -56 -40 -24 -53 -51 -40 -51 -47 -40 -22 -66 -14 -12 -11 -2 -7 -0 -1 -0 -0 -0 -0 -1 -6 -0 -0
-0 -0 -0 -0 -0 -0 -0 -0 -0 -0 -0 -0 -6 -56 -0 -136 -101 -57 -51 -14 -14 -9 -0 -0 -0 -0 -1 -0 -0 -0 -5 -2 -0 -0 -0 -0 -0 -0 -0 -0 -0 -0 -0
-0 -0 -0 -0 -0 -0 -0 -0 -0 -0 -0 -0 -0 -62 -55 -29 -28 -72 -10 -16 -2 -0 -0 -5 -1 -0 -0 -11 -47 -14 -0 -0 -0 -0 -0 -0 -0 -0 -0 -0 -0 -0 -0
-0 -0 -0 -0 -0 -0 -0 -0 -0 -0 -0 -0 -0 -27 -28 -24 -82 -101 -42 -4 -0 -0 -0 -9 -5 -3 -7 -0 -32 -3 -0 -0 -0 -0 -0 -0 -0 -0 -0 -0 -0 -0 -0
Wind_Speed
23 nan nan nan nan nan nan nan nan nan nan nan nan nan nan nan nan nan nan nan nan nan nan nan nan nan nan nan nan nan nan nan nan nan nan nan nan nan nan nan nan nan nan
27 nan nan nan nan nan nan nan nan nan nan nan nan nan nan nan nan nan nan nan nan nan nan nan nan nan 35 40 nan nan nan nan nan nan nan nan nan nan nan nan nan nan nan
27 26 22 nan nan nan nan nan nan nan nan nan nan nan nan nan nan nan nan nan nan nan nan nan nan nan 24 nan nan nan nan nan nan nan nan nan nan nan nan nan nan nan nan
27 27 21 20 nan nan nan nan nan nan nan nan nan nan nan nan nan nan nan nan nan nan nan nan nan nan nan 17 22 23 21 21 nan nan nan nan 16 nan nan nan nan nan nan
nan 30 21 17 nan nan nan nan nan nan nan nan nan nan nan nan nan nan nan nan nan 7 nan nan 8 nan nan nan 17 21 22 20 16 nan nan nan nan 9 14 nan nan nan nan
nan 26 25 19 17 nan nan nan nan nan nan nan nan nan nan nan nan nan nan nan nan nan nan nan nan 12 14 nan 15 20 18 9 6 5 9 12 13 14 13 16 nan nan nan
nan 22 28 22 17 nan nan nan nan nan nan nan nan nan nan nan nan nan nan nan nan nan nan nan nan nan nan 9 14 15 12 12 6 6 9 16 nan nan nan nan nan nan nan
nan nan 23 25 18 18 22 nan nan nan nan nan nan nan nan nan nan nan nan nan nan nan nan nan nan nan nan nan 6 11 12 12 13 11 nan 20 21 nan nan nan nan nan nan
nan nan 19 23 23 17 18 nan nan nan nan nan nan nan nan nan nan nan nan nan nan nan nan nan nan nan nan nan 10 11 13 16 16 16 19 22 22 27 nan 32 34 nan nan
nan nan nan 23 24 22 17 17 nan nan nan nan nan nan nan nan nan nan nan nan nan nan nan nan nan nan nan nan 14 14 nan 21 20 23 nan 25 nan 26 32 nan nan nan nan
nan nan nan 22 24 26 23 20 nan nan nan nan nan nan nan nan nan nan nan nan nan nan nan nan nan nan nan nan nan nan nan nan nan nan nan 23 26 nan 35 38 40 nan nan
nan nan nan 27 25 24 26 24 24 nan nan nan nan nan nan nan nan nan nan nan nan nan nan nan nan nan nan nan nan nan nan nan nan nan nan nan nan nan nan 32 36 37 nan
nan nan nan 28 25 26 24 23 23 25 nan nan nan nan nan nan nan nan nan nan nan nan nan nan nan nan nan nan nan nan nan nan nan nan nan nan nan nan nan nan nan 36 nan
nan nan nan nan nan 27 28 25 25 25 28 nan nan nan nan nan nan nan nan nan nan nan nan nan nan nan nan nan nan nan nan nan nan nan nan nan nan nan nan nan nan nan nan
nan nan nan nan nan nan nan 29 28 30 28 26 26 nan 26 24 26 27 28 nan nan 27 nan nan nan nan nan nan nan nan nan nan nan nan nan nan nan nan nan nan nan nan nan
nan nan nan nan nan nan nan nan nan 28 34 30 26 26 28 29 27 27 29 30 29 30 32 30 30 nan nan nan nan nan nan nan nan nan 31 nan nan nan nan nan nan nan nan
nan nan nan nan nan nan nan nan nan nan 30 34 27 28 30 30 28 30 34 32 32 34 33 30 31 31 nan nan nan nan nan nan nan nan 37 nan nan nan nan nan nan nan nan
nan nan nan nan nan nan nan nan nan nan nan nan 31 32 32 31 31 34 34 34 36 37 37 37 nan nan nan 37 39 43 nan nan nan nan nan nan nan nan nan nan nan nan nan
nan nan nan nan nan nan nan nan nan nan nan nan nan 30 34 35 34 36 34 35 39 40 41 42 38 nan nan nan 44 51 nan nan nan nan nan nan nan nan 68 66 69 nan 68
nan nan nan nan nan nan nan nan nan nan nan nan nan nan 34 40 39 39 40 44 46 44 52 59 53 nan nan nan nan nan nan nan nan nan nan 69 71 nan nan nan 72 75 nan
nan nan nan nan nan nan nan nan nan nan nan nan nan nan nan 45 45 47 50 52 61 64 63 64 61 61 61 63 64 65 62 67 nan 63 nan nan nan nan 82 nan nan nan nan
nan nan nan nan nan nan nan nan nan nan nan nan nan nan nan nan 62 69 69 71 70 70 69 68 66 62 71 74 75 80 nan nan 75 nan nan nan nan nan nan nan nan nan nan
nan nan nan nan nan nan nan nan nan nan nan nan nan nan nan nan 71 72 73 73 75 72 71 70 72 74 70 nan nan 88 nan 93 89 nan nan nan nan nan nan nan nan nan nan
nan nan nan nan nan nan nan nan nan nan nan nan nan nan nan nan nan 77 76 73 75 76 70 75 79 74 nan nan 80 79 nan nan nan nan nan nan nan nan nan nan nan nan nan
nan nan nan nan nan nan nan nan nan nan nan nan nan nan nan nan nan 83 83 82 80 76 77 80 71 78 83 nan nan nan nan nan nan nan nan nan nan nan nan nan nan nan nan
nan nan nan nan nan nan nan nan nan nan nan nan nan nan nan nan nan nan 80 97 109 104 99 94 nan 92 nan nan nan nan nan nan nan nan nan nan nan nan nan nan nan nan nan
Wind_Direction
321 nan nan nan nan nan nan nan nan nan nan nan nan nan nan nan nan nan nan nan nan nan nan nan nan nan nan nan nan nan nan nan nan nan nan nan nan nan nan nan nan nan nan
315 nan nan nan nan nan nan nan nan nan nan nan nan nan nan nan nan nan nan nan nan nan nan nan nan nan 249 259 nan nan nan nan nan nan nan nan nan nan nan nan nan nan nan
321 317 317 nan nan nan nan nan nan nan nan nan nan nan nan nan nan nan nan nan nan nan nan nan nan nan 233 nan nan nan nan nan nan nan nan nan nan nan nan nan nan nan nan
320 320 320 327 nan nan nan nan nan nan nan nan nan nan nan nan nan nan nan nan nan nan nan nan nan nan nan 231 255 263 261 270 nan nan nan nan 263 nan nan nan nan nan nan
nan 315 318 324 nan nan nan nan nan nan nan nan nan nan nan nan nan nan nan nan nan 244 nan nan 238 nan nan nan 276 271 275 267 262 nan nan nan nan 271 272 nan nan nan nan
nan 311 313 310 322 nan nan nan nan nan nan nan nan nan nan nan nan nan nan nan nan nan nan nan nan 280 272 nan 255 268 267 267 249 247 273 283 281 279 281 290 nan nan nan
nan 301 309 305 315 nan nan nan nan nan nan nan nan nan nan nan nan nan nan nan nan nan nan nan nan nan nan 255 247 249 262 275 292 277 280 281 nan nan nan nan nan nan nan
nan nan 304 304 310 316 314 nan nan nan nan nan nan nan nan nan nan nan nan nan nan nan nan nan nan nan nan nan 269 256 269 285 286 287 nan 270 275 nan nan nan nan nan nan
nan nan 286 292 299 305 317 nan nan nan nan nan nan nan nan nan nan nan nan nan nan nan nan nan nan nan nan nan 296 285 291 282 283 286 284 285 282 282 nan 279 278 nan nan
nan nan nan 291 291 296 299 311 nan nan nan nan nan nan nan nan nan nan nan nan nan nan nan nan nan nan nan nan 310 308 nan 298 293 289 nan 287 nan 282 282 nan nan nan nan
nan nan nan 292 293 290 292 300 nan nan nan nan nan nan nan nan nan nan nan nan nan nan nan nan nan nan nan nan nan nan nan nan nan nan nan 298 297 nan 284 284 282 nan nan
nan nan nan 256 267 276 277 288 296 nan nan nan nan nan nan nan nan nan nan nan nan nan nan nan nan nan nan nan nan nan nan nan nan nan nan nan nan nan nan 296 292 279 nan
nan nan nan 252 261 267 261 271 284 297 nan nan nan nan nan nan nan nan nan nan nan nan nan nan nan nan nan nan nan nan nan nan nan nan nan nan nan nan nan nan nan 301 nan
nan nan nan nan nan 247 257 260 270 284 291 nan nan nan nan nan nan nan nan nan nan nan nan nan nan nan nan nan nan nan nan nan nan nan nan nan nan nan nan nan nan nan nan
nan nan nan nan nan nan nan 246 269 275 285 290 293 nan 295 296 303 311 314 nan nan 313 nan nan nan nan nan nan nan nan nan nan nan nan nan nan nan nan nan nan nan nan nan
nan nan nan nan nan nan nan nan nan 275 286 287 291 291 288 291 297 303 304 303 306 312 312 314 315 nan nan nan nan nan nan nan nan nan 299 nan nan nan nan nan nan nan nan
nan nan nan nan nan nan nan nan nan nan 260 286 289 285 286 292 294 297 297 300 303 302 312 313 302 306 nan nan nan nan nan nan nan nan 294 nan nan nan nan nan nan nan nan
nan nan nan nan nan nan nan nan nan nan nan nan 282 289 289 288 289 288 292 295 296 300 301 302 nan nan nan 295 303 302 nan nan nan nan nan nan nan nan nan nan nan nan nan
nan nan nan nan nan nan nan nan nan nan nan nan nan 276 288 287 281 284 291 288 286 290 293 290 288 nan nan nan 294 296 nan nan nan nan nan nan nan nan 290 288 287 nan 281
nan nan nan nan nan nan nan nan nan nan nan nan nan nan 262 283 284 284 281 279 277 278 274 272 268 nan nan nan nan nan nan nan nan nan nan 276 280 nan nan nan 285 284 nan
nan nan nan nan nan nan nan nan nan nan nan nan nan nan nan 249 275 275 273 275 271 274 273 273 268 267 270 267 268 274 277 282 nan 280 nan nan nan nan 282 nan nan nan nan
nan nan nan nan nan nan nan nan nan nan nan nan nan nan nan nan 248 255 257 260 264 267 265 266 261 262 266 263 266 267 nan nan 282 nan nan nan nan nan nan nan nan nan nan
nan nan nan nan nan nan nan nan nan nan nan nan nan nan nan nan 244 252 255 258 261 260 262 263 264 264 263 nan nan 272 nan 278 281 nan nan nan nan nan nan nan nan nan nan
nan nan nan nan nan nan nan nan nan nan nan nan nan nan nan nan nan 247 251 255 263 259 259 263 265 263 nan nan 270 273 nan nan nan nan nan nan nan nan nan nan nan nan nan
nan nan nan nan nan nan nan nan nan nan nan nan nan nan nan nan nan 248 249 255 258 260 261 263 262 262 264 nan nan nan nan nan nan nan nan nan nan nan nan nan nan nan nan
nan nan nan nan nan nan nan nan nan nan nan nan nan nan nan nan nan nan 258 255 259 258 256 259 nan 267 nan nan nan nan nan nan nan nan nan nan nan nan nan nan nan nan nan